Weather in Barylas

Russia / Sakha (Yakutia) Republic     65°53′40″N   132°42′27″E
temp.,
°C
wind,
m/s
gust,
m/s
humid.,
%
clouds,
%
prec.,
mm/h
press.,
hPa
HPBL,
m
17 october, sun
sun1701:00−16ssw119786 0.1 102315
04:00−17ssw119782 0.1 102318
07:00−17ssw119881 0.1 102417
10:00−16ssw119271 0.1 1024105
13:00−14sw118391 0.0 1023285
16:00−14sw118645 0.0 102347
19:00−18s11955 0.0 102410
22:00−20s22985 0.0 102413
18 october, mon
mon1801:00−21s22987 0.0 102416
04:00−22s229719 0.0 102315
07:00−22s22965 0.0 102219
10:00−19s23905 0.0 102084
13:00−15s23775 0.0 1017231
16:00−14se11825 0.0 101523
19:00−19se11935 0.0 101510
22:00−21s22965 0.0 101511
19 october, tue
tue1901:00−22s229752 0.0 101413
04:00−21s2294100 0.0 101424
07:00−19s2289100 0.0 101329
10:00−17s2379100 0.0 101298
13:00−14s2266100 0.0 1011229
16:00−13s2271100 0.0 101185
19:00−16sse118486 0.0 101210
22:00−17sse228752 0.0 101210
20 october, wed
wed2001:00−18sse229076 0.0 101212
04:00−15sse2383100 0.0 101142
07:00−14sse2381100 0.0 101062
10:00−12sse2393100 0.2 1008147
13:00−10se2591100 0.3 1006262
16:00−8se2495100 1.1 1005188
19:00−8sse2396100 0.9 100567
22:00−9s2296100 1.4 100537
21 october, thu
thu2101:00−11s1196100 0.1 100514
04:00−12sw119699 0.3 100610
07:00−15ssw119776 0.0 100710
10:00−13s229583 0.0 100739
13:00−9ssw228541 0.0 1006159
16:00−10s229010 0.0 100610
19:00−16s22976 0.0 100710
22:00−18s22999 0.0 100710